Regional Weather Roundup
Issued by NWS

Home | Current Version | Previous Version | Text Only | Print | Product List | Glossary Off
Versions: 1 2 3 4 5 6 7 8 9 10 11 12 13 14 15 16 17 18 19 20 21 22 23 24 25 26 27 28 29 30 31 32 33 34 35 36 37 38 39 40 41 42 43 44 45 46 47 48 49 50

000
ASUS43 KMPX 020010
RWRMN
WEATHER ROUNDUP FOR MINNESOTA
NATIONAL WEATHER SERVICE TWIN CITIES/CHANHASSEN MN
700 PM CDT MON JUN 01 2015


NOTE: "FAIR" INDICATES FEW OR NO CLOUDS BELOW 12,000 FEET WITH NO
SIGNIFICANT WEATHER AND/OR OBSTRUCTIONS TO VISIBILITY. N/A MEANS
CURRENT SKY AND/OR WEATHER CONDITIONS ARE NOT AVAILABLE.

MNZ060>063-068>070-020100-
   Twin Cities Metro

CITY           SKY/WX    TMP DP  RH WIND       PRES   REMARKS
TWIN CITIES    PTSUNNY   68  39  34 SE10      30.13F
6HR MIN TEMP:  63; 6HR MAX TEMP:  69;

ST PAUL        MOSUNNY   67  41  38 S12       30.14F
CRYSTAL        SUNNY     70  37  29 SE12      30.12F
BLAINE         PTSUNNY   70  39  32 SE8       30.14S
LAKEVILLE      SUNNY     68  39  34 SE8       30.13S
EDEN PRAIRIE   SUNNY     68  37  32 S12       30.12S
6HR MIN TEMP:  65; 6HR MAX TEMP:  71;

SOUTH ST PAUL  MOSUNNY   68  37  32 SE8       30.14S
LAKE ELMO      FAIR      66  43  42 SE10G16   30.16S
$$
MNZ001>005-007-008-013>017-022>024-027-028-020100-
   Northwest Minnesota

CITY           SKY/WX    TMP DP  RH WIND       PRES   REMARKS
BEMIDJI        PTSUNNY   66  41  40 SE14      30.05S
HALLOCK        PTSUNNY   73  45  35 S28       29.92F
ROSEAU         CLOUDY    68  46  45 S12       29.99S
WARROAD        CLOUDY    66  48  52 S13       30.01S
THIEF RVR FALL CLOUDY    68  43  40 S20G28    29.98F
CROOKSTON      MOSUNNY   72  46  40 S21G30    29.96F
FOSSTON        PTSUNNY   66  45  45 SE16G23   30.02S
DETROIT LAKES  MOSUNNY   68  45  42 S15G24    30.03F
MOORHEAD       SUNNY     73  45  35 S22G30    29.96F
PARK RAPIDS    PTSUNNY   68  40  35 S18G25    30.06F
MAHNOMEN       CLOUDY    67  46  47 S12G17    30.01S
$$
MNZ006-009>011-018-025>026-020100-
   North Central Minnesota

CITY           SKY/WX    TMP DP  RH WIND       PRES   REMARKS
BAUDETTE       CLOUDY    65  42  43 S10       30.02F
FLAG ISLAND    CLOUDY    63  52  67 S13       30.00S
INTL FALLS     PTSUNNY   67  36  31 VRB5      30.05S
6HR MIN TEMP:  66; 6HR MAX TEMP:  71;

WASKISH        PTSUNNY   66  43  42 SE6       30.04F
BIG FORK       PTSUNNY   66  37  34 S12       30.08S
LONGVILLE      CLOUDY    64  36  34 SE8       30.09S
GRAND RAPIDS   PTSUNNY   66  34  30 S15       30.10S
CRANE LAKE     MOSUNNY   66  34  30 S7        30.10F
ORR            MOSUNNY   68  36  30 SE12G18   30.07S
COOK           MOSUNNY   66  37  34 SE8G17    30.10F
WALKER         MOCLDY    65  36  34 S13G20    30.07R
$$
MNZ012-019>021-037-020100-
   Northeast Minnesota

CITY           SKY/WX    TMP DP  RH WIND       PRES   REMARKS
DULUTH         MOSUNNY   57  34  41 E15       30.16S
6HR MIN TEMP:  57; 6HR MAX TEMP:  61;

ELY            MOSUNNY   64  34  32 SE12G17   30.13S
HIBBING        CLOUDY    66  36  32 S10G23    30.11S
EVELETH        SUNNY     63  34  34 S12       30.13F
DULUTH HARBOR  MOSUNNY   46  36  66 NE14      30.19F
TWO HARBORS    SUNNY     57  37  47 NE10      30.16S
SILVER BAY     SUNNY     52  25  35 NE9       30.18S
GRAND MARAIS     N/A     48  28  46 NE7       30.21S
G MARAIS ARPRT SUNNY     55  18  22 E9        30.21S
$$
MNZ029>031-032-039>041-046>048-054>057-064-020100-
   West Central Minnesota

CITY           SKY/WX    TMP DP  RH WIND       PRES   REMARKS
FERGUS FALLS   MOSUNNY   73  45  35 S21G29    30.00F
WHEATON        PTSUNNY   73  45  35 SE16G22   29.99F
MORRIS         PTSUNNY   75  46  35 SE23      30.00F
ALEXANDRIA     MOSUNNY   69  43  38 SE14G28   30.06F
ELBOW LAKE     FAIR      71  47  41 SE18G26   30.01F
WADENA         PTSUNNY   66  45  45 S17G24    30.06S
GLENWOOD       SUNNY     70  43  37 SE15      30.07F
APPLETON       MOSUNNY   75  43  31 SE15      30.00F
BENSON         SUNNY     73  39  29 S12       30.03F
ORTONVILLE     MOSUNNY   75  45  33 S14G21    29.98F
MADISON        SUNNY     75  41  29 S16G22    30.00F
WILLMAR        FAIR      73  43  33 SE17      30.07F
$$
MNZ033>034-036-042>043-049>051-058-059-020100-
   Central Minnesota

CITY           SKY/WX    TMP DP  RH WIND       PRES   REMARKS
ST CLOUD       MOSUNNY   66  37  34 SE12      30.11F
6HR MIN TEMP:  65; 6HR MAX TEMP:  69;

SAUK CENTRE    FAIR      69  44  40 SE13      30.08F
PAYNESVILLE    MOSUNNY   67  41  39 E13G18    30.09F
AITKIN         PTSUNNY   66  34  30 S9        30.10S
PINE RIVER     PTSUNNY   64  39  39 SE12      30.12S
BRAINERD       PTSUNNY   66  34  30 S14G22    30.11S
STAPLES        PTSUNNY   66  37  34 SE10G16   30.08S
LONG PRAIRIE   PTSUNNY   64  43  45 SE13G20   30.09F
LITTLE FALLS   MOSUNNY   68  32  26 SE12G18   30.10F
LITCHFIELD     PTSUNNY   72  41  33 SE9G21    30.10F
BUFFALO        MOSUNNY   68  36  30 SE10      30.13F
MAPLE LAKE     MOSUNNY   69  43  38 SE8       30.13F
$$
MNZ037-044-045-052-053-020100-
   East Central Minnesota

CITY           SKY/WX    TMP DP  RH WIND       PRES   REMARKS
PRINCETON      MOSUNNY   70  37  30 SE12      30.13S
MORA           PTSUNNY   64  36  34 S9        30.15F
CAMBRIDGE      PTSUNNY   70  46  43 S10       30.13R
RUSH CITY      PTSUNNY   66  39  37 SE9       30.14S
MOOSE LAKE     PTSUNNY   63  37  39 E7        30.12S
HINCKLEY       CLOUDY    64  41  42 S6        30.14S
CLOQUET        MOSUNNY   54  32  43 E7        30.16S
MCGREGOR       MOSUNNY   66  34  30 S15       30.12F
$$
MNZ071>073-080-081-089-090-097-098-020100-
   Southwest Minnesota

CITY           SKY/WX    TMP DP  RH WIND       PRES   REMARKS
MONTEVIDEO     SUNNY     75  45  33 S12G20    30.03F
GRANITE FALLS  PTSUNNY   77  44  30 SE20      30.05F
CANBY          MOSUNNY   75  45  34 S12       30.02F
MARSHALL       MOSUNNY   75  45  33 S15       30.03S
REDWOOD FALLS  SUNNY     74  43  32 SE17G24   30.06S
OLIVIA         MOSUNNY   70  41  35 SE15      30.06F
PIPESTONE      MOSUNNY   73  46  38 S16       30.04S
WINDOM         MOSUNNY   73  45  35 SE14      30.08F
WORTHINGTON    SUNNY     73  45  35 S14       30.07S
JACKSON        SUNNY     72  45  37 SE14      30.10S
TRACY          MOSUNNY   75  45  34 S13G20    30.05S
SLAYTON        SUNNY     74  43  32 SE16      30.06S
$$
MNZ065>067-074>077-082>085-091>093-020100-
   South Central Minnesota

CITY           SKY/WX    TMP DP  RH WIND       PRES   REMARKS
MANKATO        SUNNY     70  37  30 SE14      30.11F
NEW ULM        MOSUNNY   70  41  35 SE8       30.09F
ST JAMES       MOSUNNY   73  41  31 SE13      30.10S
FAIRMONT       SUNNY     72  39  30 SE13      30.10S
GLENCOE        MOSUNNY   72  43  34 SE12      30.11S
FARIBAULT      SUNNY     70  37  30 S8        30.14S
OWATONNA       SUNNY     70  36  28 SE10      30.14S
WASECA         SUNNY     70  36  28 SE12      30.14S
ALBERT LEA     SUNNY     70  36  28 S10       30.14R
$$
MNZ078>079-086>088-094>096-020100-
   Southeast Minnesota

CITY           SKY/WX    TMP DP  RH WIND       PRES   REMARKS
ROCHESTER      PTSUNNY   66  42  41 SE14      30.17F
6HR MIN TEMP:  62; 6HR MAX TEMP:  67;

RED WING       PTSUNNY   68  39  34 SE12      30.15S
STANTON        MOSUNNY   68  38  32 SE10      30.13S
DODGE CENTER   MOSUNNY   68  37  32 SE14      30.15F
WINONA         MOSUNNY   68  43  40 SE6       30.17S
AUSTIN         SUNNY     66  37  34 SE8       30.14F
PRESTON        PTSUNNY   65  38  36 SE7       30.18S
$$
ABBREVIATIONS USED IN REMARKS
   TC - TEMPERATURES IN CELSIUS
  WCI - WIND CHILL INDEX
   HX - HEAT INDEX
  VSB - VISIBILITY
$$


USA.gov is the U.S. government's official web portal to all federal, state and local government web resources and services.